Regional Weather Roundup
Issued by NWS

Home | Current Version | Previous Version | Graphics & Text | Print | Product List | Glossary Off
Versions: 1 2 3 4 5 6 7 8 9 10 11 12 13 14 15 16 17 18 19 20 21 22 23 24 25 26 27 28 29 30 31 32 33 34 35 36 37 38 39 40 41 42 43 44 45 46 47 48 49 50

000
ASUS43 KDTX 190610
RWRMI
MICHIGAN HOURLY REGIONAL WEATHER ROUNDUP
NATIONAL WEATHER SERVICE DETROIT/PONTIAC MI
200 AM EDT TUE SEP 19 2017

NOTE: "FAIR" INDICATES FEW OR NO CLOUDS BELOW 12,000 FEET WITH NO
SIGNIFICANT WEATHER AND/OR OBSTRUCTION TO VISIBILITY.

MIZ047>049-052>055-059>063-066>070-074>076-081>083-190700-
SOUTHEAST LOWER MICHIGAN

CITY           SKY/WX    TMP DP  RH WIND       PRES   REMARKS
ADRIAN         CLOUDY    65  61  87 E9        30.04S
6HR MIN TEMP:  65; 6HR MAX TEMP:  70;

ALMA           PTCLDY    52  50  93 E3        30.06S
ANN ARBOR      CLOUDY    64  57  78 NE5       30.04R
BAD AXE        CLOUDY    47  46  96 CALM      30.07S
CARO           PTCLDY    52  51  95 CALM      30.05S
DETROIT CITY   CLOUDY    64  60  87 N5        30.04F
6HR MIN TEMP:  63; 6HR MAX TEMP:  66;

DETROIT        CLOUDY    66  59  78 NE6       30.03F
6HR MIN TEMP:  66; 6HR MAX TEMP:  70;

FLINT          CLOUDY    57  54  89 E3        30.05F
6HR MIN TEMP:  56; 6HR MAX TEMP:  67;

GROSSE ILE     CLOUDY    64  63  94 NE3       30.02F
HILLSDALE      CLOUDY    64  63  94 E6        30.03S FOG
HOWELL         CLOUDY    58  56  93 CALM      30.04F
6HR MIN TEMP:  58; 6HR MAX TEMP:  67;


CITY           SKY/WX    TMP DP  RH WIND       PRES   REMARKS
JACKSON        CLOUDY    65  60  84 E7        30.03F
6HR MIN TEMP:  65; 6HR MAX TEMP:  69;

LAMBERTVILLE   CLOUDY    66  63  90 CALM      30.02S FOG
6HR MIN TEMP:  66; 6HR MAX TEMP:  70;

LANSING        MOCLDY    61  55  81 E8        30.04F
6HR MIN TEMP:  58; 6HR MAX TEMP:  68;

LAPEER         FAIR      55  53  95 CALM      30.06S
6HR MIN TEMP:  53; 6HR MAX TEMP:  65;

MASON          MOCLDY    61  59  92 E3        30.03F
MONROE         CLOUDY    65  62  90 CALM      30.02F
6HR MIN TEMP:  65; 6HR MAX TEMP:  66; 6HR PCP:  0.01;

MT. CLEMENS    CLOUDY    62  62 100 N5        30.03S
6HR MIN TEMP:  61; 6HR MAX TEMP:  65;

PONTIAC        CLOUDY    60  53  77 NE6       30.03F
6HR MIN TEMP:  59; 6HR MAX TEMP:  67;

PORT HOPE        N/A     63  56  78 NE8       30.05F
6HR MIN TEMP:  53; 6HR MAX TEMP:  63;

PORT HURON     CLOUDY    63  61  94 CALM      30.04S
TRI CITIES     PTCLDY    56  54  93 E3        30.07R
6HR MIN TEMP:  55; 6HR MAX TEMP:  66;

MIDLAND        FAIR      54  53  97 CALM      30.05S
6HR MIN TEMP:  54; 6HR MAX TEMP:  66;

TROY           CLOUDY    63  58  85 NE5       30.06F
SAGINAW HB     MOCLDY    54  52  94 CALM      30.05S
$$
MIZ043>046-050>051-056>058-064>065-071>073-077>080-190700-
SOUTHWEST LOWER MICHIGAN

CITY           SKY/WX    TMP DP  RH WIND       PRES   REMARKS
BATTLE CREEK   CLOUDY    66  64  93 SE9       30.03R FOG
6HR MIN TEMP:  64; 6HR MAX TEMP:  72;

BENTON HARBOR  CLOUDY    61  55  81 E5        29.98S
6HR MIN TEMP:  59; 6HR MAX TEMP:  65;

BIG RAPIDS     PTCLDY    56  54  92 CALM      30.05R
6HR MIN TEMP:  54; 6HR MAX TEMP:  64;

COLDWATER      CLOUDY    67  67 100 SE9       30.01S FOG
6HR MIN TEMP:  60; 6HR MAX TEMP:  67;

FREMONT        FAIR      60  55  81 CALM      30.03S
HOLLAND        MOCLDY    61  55  81 E7        30.01S
6HR MIN TEMP:  57; 6HR MAX TEMP:  65;

GRAND RAPIDS   PTCLDY    61  58  90 E6        30.02S
6HR MIN TEMP:  61; 6HR MAX TEMP:  70;

IONIA          FAIR      59  57  92 E6        30.02F
6HR MIN TEMP:  58; 6HR MAX TEMP:  68;

KALAMAZOO      CLOUDY    64  60  87 CALM      30.02R FOG
6HR MIN TEMP:  58; 6HR MAX TEMP:  65;

LUDINGTON      PTCLDY    55  51  86 E5        30.02S
6HR MIN TEMP:  51; 6HR MAX TEMP:  62;

MARSHALL       CLOUDY    65  65  98 E6        30.02S FOG
6HR MIN TEMP:  59; 6HR MAX TEMP:  65;

MOUNT PLEASANT CLEAR     57  56  95 E3        30.05S
6HR MIN TEMP:  57; 6HR MAX TEMP:  67;

MUSKEGON       PTCLDY    60  55  83 E5        30.01F
6HR MIN TEMP:  59; 6HR MAX TEMP:  65;

SOUTH HAVEN    CLOUDY    62  57  86 E5        29.99S
$$
MIZ016>042-190700-
NORTHERN LOWER MICHIGAN

CITY           SKY/WX    TMP DP  RH WIND       PRES   REMARKS
ALPENA         PTCLDY    49  49 100 CALM      30.07F
6HR MIN TEMP:  48; 6HR MAX TEMP:  60;

BEAVER ISLAND  CLOUDY    55  53  92 CALM      30.07F
6HR MIN TEMP:  49; 6HR MAX TEMP:  55;

BELLAIRE       CLOUDY    48  47  95 CALM      30.06S
6HR MIN TEMP:  48; 6HR MAX TEMP:  60;

CADILLAC       CLEAR     55  52  89 CALM      30.06S
CHARLEVOIX     MOCLDY    55  52  90 SE5       30.09S
FRANKFORT      MOCLDY    60  53  78 SE6       30.02F
GAYLORD        CLOUDY    51  45  79 CALM      30.07F
6HR MIN TEMP:  48; 6HR MAX TEMP:  62;

GRAYLING       PTCLDY    47  45  91 CALM      30.09R
6HR MIN TEMP:  45; 6HR MAX TEMP:  58;

HARBOR SPRINGS PTCLDY    52  51  95 NE3       30.07F
HOUGHTON LAKE  CLEAR     48  48 100 NE3       30.08R
6HR MIN TEMP:  48; 6HR MAX TEMP:  60;

MANISTEE       CLOUDY    55  52  89 E7        30.02F
OSCODA         PTCLDY    49  47  95 CALM      30.06F
6HR MIN TEMP:  48; 6HR MAX TEMP:  62;

PELLSTON       CLOUDY    45  44  97 CALM      30.08F
6HR MIN TEMP:  45; 6HR MAX TEMP:  57;

ROGERS CITY    MOCLDY    50  48  95 CALM      30.09R
TRAVERSE CITY  CLOUDY    54  50  86 CALM      30.04S
6HR MIN TEMP:  52; 6HR MAX TEMP:  64;

$$
MIZ007>008-015-190700-
EASTERN UPPER MICHIGAN

CITY           SKY/WX    TMP DP  RH WIND       PRES   REMARKS
KINROSS        PTCLDY    52  49  89 N3        30.09S
6HR MIN TEMP:  52; 6HR MAX TEMP:  55;

MACKINAC ISLAN CLOUDY    57  50  76 NE8       30.08S
6HR MIN TEMP:  54; 6HR MAX TEMP:  59;

NEWBERRY       CLOUDY    52  51  97 NE6       30.08F
6HR MIN TEMP:  51; 6HR MAX TEMP:  56;

S. S. MARIE    CLOUDY    56  50  80 CALM      30.09R
6HR MIN TEMP:  53; 6HR MAX TEMP:  58;

MUNISING         N/A     58  50  75 CALM      30.07S
6HR MIN TEMP:  57; 6HR MAX TEMP:  62;

$$
MIZ004>006-011>014-085-190700-
CENTRAL UPPER MICHIGAN

CITY           SKY/WX    TMP DP  RH WIND       PRES   REMARKS
MANISTIQUE     CLOUDY    54  48  81 N3        30.07R
6HR MIN TEMP:  51; 6HR MAX TEMP:  55;

ESCANABA       MOCLDY    57  53  86 CALM      30.07R
6HR MIN TEMP:  57; 6HR MAX TEMP:  62;

MENOMINEE      CLOUDY    57  53  86 N6        30.06S
6HR MIN TEMP:  57; 6HR MAX TEMP:  63;

SAWYER-GWINN   LGT RAIN  54  52  94 CALM      30.10S
6HR MIN TEMP:  54; 6HR MAX TEMP:  58;

$$
MIZ001>003-009>011-084-190700-
WESTERN UPPER MICHIGAN

CITY           SKY/WX    TMP DP  RH WIND       PRES   REMARKS
IRON MOUNTAIN  CLOUDY    57  52  83 N5        30.06F
6HR MIN TEMP:  56; 6HR MAX TEMP:  62; 6HR PCP: TRACE;

HOUGHTON       CLOUDY    56  53  90 E7        30.06F
6HR MIN TEMP:  55; 6HR MAX TEMP:  56; 6HR PCP:  0.05;

COPPER HARBOR    N/A     57  53  86 SW8       30.07S
6HR MIN TEMP:  55; 6HR MAX TEMP:  57; 6HR PCP:  0.04;

IRONWOOD       CLOUDY    56  53  90 VRB5      30.03F
6HR MIN TEMP:  53; 6HR MAX TEMP:  57; 6HR PCP:  0.01;

$$

ABBREVIATIONS USED IN REMARKS
   TC - TEMPERATURE IN CELSIUS
  WCI - WIND CHILL INDEX
   HX - HEAT INDEX
  VSB - VISIBILITY





USA.gov is the U.S. government's official web portal to all federal, state and local government web resources and services.